Campeche, Mexico

4:48 AM EST on March 30, 2017 (GMT -0500)
Campeche

Weather History for MMCP - May, 2013

Change the Weather History Date:

Sunday, May 19, 2013

  Actual Average Record
Temperature  
Mean Temperature 91 °F -  
Max Temperature 104 °F 91 °F 104 °F (2011)
Min Temperature 78 °F 74 °F 69 °F (2006)
Cooling Degree Days 26    
Growing Degree Days 41 (Base 50)    
Moisture  
Dew Point 74 °F    
Average Humidity 65    
Maximum Humidity 83    
Minimum Humidity 30    
Precipitation  
Precipitation 0.00 in - - ()
Sea Level Pressure  
Sea Level Pressure 29.83 in    
Wind  
Wind Speed 8 mph ()    
Max Wind Speed 17 mph    
Max Gust Speed 29 mph    
Visibility 6.5 miles    
Events      
Averages and records for this station are not official NWS values.
T = Trace of Precipitation, MM = Missing Value Source: Averaged Metar Reports

Daily Weather History Graph

Daily Weather History Graph

Search for Another Location

Airport or City:

Trip Planner

Search our weather history database for the weather conditions in past years. The results will help you decide how hot, cold, wet, or windy it might be!

Date:

Astronomy

May. 19, 2013 Rise Set
Actual Time 6:24 AM CDT 7:32 PM CDT
Civil Twilight 6:00 AM CDT 7:56 PM CDT
Nautical Twilight 5:32 AM CDT 8:24 PM CDT
Astronomical Twilight 5:03 AM CDT 8:53 PM CDT
Moon 2:20 PM CDT (5/19) 2:01 AM CDT (5/19)
Length of Visible Light 13h 55m
Length of Day
13h 07m
Waxing Gibbous, 65% of the Moon is Illuminated
May 19
Waxing Gibbous
May 24
Full
May 31
Last Quarter
Jun 8
New
Jun 16
First Quarter

Hourly Weather History & Observations

Time (CDT) Temp. Heat Index Dew Point Humidity Pressure Visibility Wind Dir Wind Speed Gust Speed Precip Events Conditions
1:50 AM 84 °F - 73 °F 63% 29.91 in 4 mi ESE 4.5 mph - -  
3:50 AM 80 °F - 73 °F 74% 29.85 in 4 mi ESE 4.5 mph - -  
5:43 AM 78.8 °F - 73.4 °F 83% 29.87 in 7.0 mi East 11.5 mph - N/A   Scattered Clouds
6:40 AM 78.8 °F - 73.4 °F 83% 29.87 in 7.0 mi SE 9.2 mph - N/A   Scattered Clouds
7:40 AM 78.8 °F - 73.4 °F 83% 29.89 in 7.0 mi East 9.2 mph - N/A   Partly Cloudy
8:40 AM 82.4 °F 89.5 °F 75.2 °F 79% 29.89 in 7.0 mi SE 17.3 mph 28.8 mph N/A   Scattered Clouds
9:47 AM 86.0 °F 93.4 °F 73.4 °F 66% 29.89 in 7.0 mi East 11.5 mph 23.0 mph N/A   Partly Cloudy
9:50 AM 92 °F - 77 °F 54% 29.89 in 6 mi ESE 6.7 mph - -   Scattered Clouds
10:41 AM 89.6 °F 96.2 °F 71.6 °F 55% 29.88 in 7.0 mi East 12.7 mph - N/A   Partly Cloudy
11:40 AM 91.4 °F 96.8 °F 69.8 °F 49% 29.86 in 7.0 mi East 9.2 mph - N/A   Partly Cloudy
12:43 PM 95.0 °F 99.5 °F 68.0 °F 41% 29.84 in 7.0 mi East 11.5 mph 23.0 mph N/A   Partly Cloudy
12:50 PM 82 °F - 76 °F 79% 29.84 in 6 mi SE 4.5 mph - -   Scattered Clouds
1:40 PM 96.8 °F 100.7 °F 66.2 °F 37% 29.81 in 7.0 mi East 6.9 mph - N/A   Scattered Clouds
2:42 PM 98.6 °F 100.0 °F 62.6 °F 30% 29.78 in 7.0 mi SE 8.1 mph - N/A   Scattered Clouds
3:42 PM 91.4 °F 102.5 °F 75.2 °F 59% 29.76 in 7.0 mi West 11.5 mph 23.0 mph N/A   Scattered Clouds
3:50 PM 92 °F - 80 °F 60% 29.78 in 6 mi West 6.7 mph - -   Scattered Clouds
4:42 PM 87.8 °F 99.7 °F 77.0 °F 70% 29.76 in 7.0 mi West 11.5 mph 23.0 mph N/A   Scattered Clouds
5:41 PM 86.0 °F 99.3 °F 78.8 °F 79% 29.75 in 7.0 mi NW 11.5 mph 23.0 mph N/A   Partly Cloudy
6:40 PM 86.0 °F 99.3 °F 78.8 °F 79% 29.75 in 7.0 mi North 11.5 mph 23.0 mph N/A   Partly Cloudy
6:50 PM 87 °F - 77 °F 66% 29.77 in 6 mi North 6.7 mph - -  
7:42 PM 86.0 °F 99.3 °F 78.8 °F 79% 29.76 in 7.0 mi NW 11.5 mph 23.0 mph N/A   Scattered Clouds
8:40 PM 86.0 °F 99.3 °F 78.8 °F 79% 29.78 in 7.0 mi North 11.5 mph - N/A   Clear
9:42 PM 86.0 °F 93.4 °F 73.4 °F 66% 29.81 in 7.0 mi Calm Calm - N/A   Clear
9:50 PM 88 °F - 75 °F 58% 29.82 in 4 mi NE 2.2 mph - -   Partly Cloudy
10:41 PM 87.8 °F 92.6 °F 69.8 °F 55% 29.83 in 7.0 mi ESE 11.5 mph - N/A   Clear
11:42 PM 87.8 °F 93.8 °F 71.6 °F 58% 29.85 in 7.0 mi ESE 11.5 mph 23.0 mph N/A   Clear